This is the latest recevied weather packets stored in our database for station/object NR6G-12. If no packets are shown the sender has not sent any weather packets the latest 10 day(s).
| Time | Temp. | Humidity | Pressure | Rain* | Wind** | Luminosity | Snow |
|---|---|---|---|---|---|---|---|
| 1777473180 | 8.33° C | 76% | 1018.5 hPa | 0 mm | - | - | - |
| 1777472459 | 8.33° C | 77% | 1018.4 hPa | 0 mm | - | - | - |
| 1777471739 | 8.33° C | 77% | 1018.3 hPa | 0 mm | - | - | - |
| 1777471380 | 7.78° C | 77% | 1018.3 hPa | 0 mm | - | - | - |
| 1777470659 | 7.78° C | 77% | 1018.2 hPa | 0 mm | - | - | - |
| 1777470299 | 7.78° C | 76% | 1018.2 hPa | 0 mm | - | - | - |
| 1777469939 | 7.78° C | 76% | 1017.9 hPa | 0 mm | - | - | - |
| 1777469579 | 8.33° C | 74% | 1017.8 hPa | 0 mm | - | - | - |
| 1777469219 | 8.33° C | 73% | 1017.7 hPa | 0 mm | - | - | - |
| 1777468859 | 8.33° C | 70% | 1017.7 hPa | 0 mm | - | - | - |
| 1777468499 | 8.33° C | 67% | 1017.7 hPa | 0 mm | - | - | - |
| 1777467779 | 8.33° C | 63% | 1017.5 hPa | 0 mm | - | - | - |
| 1777467420 | 8.33° C | 59% | 1017.5 hPa | 0 mm | - | - | - |
| 1777467059 | 7.78° C | 59% | 1017.4 hPa | 0 mm | - | - | - |
| 1777466700 | 7.78° C | 62% | 1017.3 hPa | 0 mm | - | - | - |
| 1777465979 | 7.78° C | 71% | 1017.4 hPa | 0 mm | - | - | - |
| 1777465619 | 7.78° C | 72% | 1017.3 hPa | 0 mm | - | - | - |
| 1777464899 | 7.78° C | 74% | 1017.3 hPa | 0 mm | - | - | - |
| 1777464539 | 7.78° C | 73% | 1017.3 hPa | 0 mm | - | - | - |
| 1777464179 | 7.22° C | 74% | 1017.3 hPa | 0 mm | - | - | - |
| 1777463819 | 7.22° C | 75% | 1017.3 hPa | 0 mm | - | - | - |
| 1777463459 | 7.22° C | 76% | 1017.4 hPa | 0 mm | - | - | - |
| 1777463099 | 7.22° C | 78% | 1017.5 hPa | 0 mm | - | - | - |
| 1777462740 | 7.22° C | 79% | 1017.5 hPa | 0 mm | - | - | - |
| 1777462020 | 7.22° C | 82% | 1017.7 hPa | 0 mm | - | - | - |
* Rain latest hour (hover to see other rain measurements)
** Current wind speed in m/s (hover to see current wind gust speed)